Home   Weather   Spain   Santander   Past weeks
Flag for Spain

Past Weather in Santander, Cantabria, Spain — Yesterday and Last 2 Weeks

Currently: 52 °F. Overcast. (Weather station: Santander / Parayas, Spain). See more current weather

Past Weather in Santander — Graph

°F

Santander Temperature Yesterday

Maximum temperature yesterday: 55 °F (at 4:30 pm)
Minimum temperature yesterday: 48 °F (at 6:30 am)
Average temperature yesterday: 51 °F

High & Low Weather Summary for the Past Weeks

 TemperatureHumidityPressure
High77 °F (Feb 15, 3:30 pm)100% (Feb 13, 11:00 pm)30.69 "Hg (Feb 13, 11:00 pm)
Low39 °F (Feb 20, 6:30 am)36% (Feb 15, 11:30 am)29.39 "Hg (Feb 25, 4:00 pm)
Average53 °F83%30.11 "Hg
* Reported Feb 13 11:00 pm — Feb 28 11:30 pm, Santander. Weather by CustomWeather, © 2024

Note: Actual official high and low records may vary slightly from our data, if they occured in-between our weather recording intervals... More about our weather records

Santander Weather History for the Previous 24 Hours

Scroll right to see more
 ConditionsComfort  
Time TempWeatherWind HumidityBarometerVisibility
11:30 pm
Wed, Feb 28
52 °FOvercast.7 mph94%30.24 "HgN/A
11:00 pm52 °FPassing clouds.7 mph100%30.24 "HgN/A
10:30 pm50 °FPassing clouds.7 mph100%30.27 "HgN/A
10:00 pm52 °FPassing clouds.6 mph100%30.27 "HgN/A
9:30 pm52 °FPassing clouds.7 mph100%30.27 "HgN/A
9:00 pm52 °FPassing clouds.7 mph100%30.27 "HgN/A
8:30 pm52 °FPassing clouds.6 mph100%30.30 "HgN/A
8:00 pm52 °FPassing clouds.3 mph100%30.30 "HgN/A
7:30 pm52 °FPassing clouds.3 mph100%30.30 "HgN/A
7:00 pm54 °FBroken clouds.5 mph100%30.30 "HgN/A
6:30 pm54 °FBroken clouds.7 mph100%30.30 "HgN/A
6:00 pm54 °FPartly sunny.9 mph100%30.30 "HgN/A
5:30 pm55 °FPartly sunny.12 mph88%30.30 "HgN/A
5:00 pm55 °FPartly sunny.10 mph94%30.30 "HgN/A
4:30 pm55 °FPartly sunny.13 mph94%30.30 "HgN/A
4:00 pm54 °FPartly sunny.13 mph100%30.30 "HgN/A
3:30 pm54 °FPartly sunny.9 mph100%30.30 "Hg4 mi
3:00 pm52 °FLight rain. Cloudy.7 mph100%30.33 "Hg2 mi
2:30 pm52 °FLight rain. Fog.12 mph100%30.33 "Hg1 mi
2:10 pm52 °FLight rain. Mostly cloudy.6 mph100%30.33 "Hg2 mi
2:00 pm52 °FCloudy.6 mph100%30.33 "HgN/A
1:30 pm52 °FLight rain. More clouds than sun.8 mph100%30.36 "Hg4 mi
1:00 pm52 °FLight rain. More clouds than sun.12 mph100%30.36 "Hg5 mi
12:30 pm52 °FLight rain. More clouds than sun.9 mph100%30.36 "Hg4 mi
12:00 pm50 °FOvercast.6 mph100%30.36 "HgN/A
11:30 am50 °FOvercast.6 mph100%30.36 "HgN/A
11:00 am48 °FMore clouds than sun.8 mph100%30.36 "HgN/A
10:30 am48 °FLow clouds.7 mph100%30.36 "HgN/A
10:00 am48 °FLight rain. Mostly cloudy.6 mph100%30.36 "Hg5 mi
9:44 am48 °FLight rain. Mostly cloudy.6 mph100%30.36 "Hg5 mi
9:30 am48 °FLight rain. Fog.8 mph100%30.36 "Hg2 mi
9:00 am48 °FBroken clouds.6 mph100%30.36 "HgN/A
8:30 am48 °FBroken clouds.5 mph100%30.33 "HgN/A
8:00 am48 °FBroken clouds.6 mph100%30.33 "HgN/A
7:30 am48 °FLight rain. Partly cloudy.8 mph100%30.33 "HgN/A
7:00 am48 °FLight rain. Passing clouds.12 mph100%30.33 "Hg3 mi
6:30 am48 °FLight rain. Partly cloudy.10 mph100%30.33 "Hg2 mi
6:00 am50 °FPassing clouds.13 mph94%30.33 "HgN/A
5:30 am52 °FPartly cloudy.10 mph77%30.33 "HgN/A
5:00 am52 °FPassing clouds.9 mph77%30.33 "HgN/A
4:30 am52 °FOvercast.5 mph67%30.33 "Hg6 mi
4:00 am52 °FPassing clouds.8 mph72%30.33 "HgN/A
3:30 am52 °FPassing clouds.10 mph67%30.33 "HgN/A
3:00 am50 °FClear.13 mph71%30.33 "Hg6 mi
2:30 am52 °FPassing clouds.15 mph67%30.33 "HgN/A
2:00 am52 °FPartly cloudy.13 mph72%30.33 "HgN/A
1:30 am52 °FPassing clouds.10 mph72%30.33 "HgN/A
1:00 am52 °FPartly cloudy.12 mph67%30.36 "HgN/A
12:30 am52 °FPassing clouds.8 mph77%30.36 "HgN/A
12:00 am52 °FPartly cloudy.13 mph72%30.33 "HgN/A
Weather by CustomWeather, © 2024

See weather overview